Location: Newark
(47.5000°N, 4.6167°E)
Time: 01:35:42
(UTC+00:00)

ISS - Pass Details

Date: 18 May 2021
Orbit: 417 x 422 km, 51.6° (Epoch: 14 June)

Event Time Altitude Azimuth Distance (km) Brightness Sun altitude
Rises 00:52:55 0° 294° (WNW) 2,372 0.1 -20.9°
Reaches altitude 10° 00:55:02 10° 293° (WNW) 1,507 -0.9 -20.7°
Enters shadow 00:55:45 16° 292° (WNW) 1,215 -1.4 -20.7°
